Regional Weather Roundup
Issued by NWS

Home | Current Version | Previous Version | Graphics & Text | Print | Product List | Glossary On
Versions: 1 2 3 4 5 6 7 8 9 10 11 12 13 14 15 16 17 18 19 20 21 22 23 24 25 26 27 28 29 30 31 32 33 34 35 36 37 38 39 40 41 42 43 44 45 46 47 48 49 50
000
ASUS43 KMKX 210111
RWRWI

WISCONSIN REGIONAL WEATHER ROUNDUP
NATIONAL WEATHER SERVICE MILWAUKEE/SULLIVAN WI
800 PM CDT MON OCT 20 2014

NOTE: "FAIR" INDICATES FEW OR NO CLOUDS BELOW 12,000 FEET WITH NO
SIGNIFICANT WEATHER AND/OR OBSTRUCTIONS TO VISIBILITY.

WIZ001-002-006>008-014>016-023>028-210200-
NORTHWEST WISCONSIN

CITY           SKY/WX    TMP DP  RH WIND       PRES   REMARKS
SUPERIOR ARPT  CLOUDY    48  38  68 N5        30.09R
ASHLAND        CLOUDY    48  40  73 N6        30.08R
HAYWARD        CLOUDY    49  40  71 N5        30.07R
SIREN          CLOUDY    49  38  64 CALM      30.07S
CUMBERLAND     CLOUDY    48  37  66 N6        30.06S
RICE LAKE      CLOUDY    49  39  68 N3        30.07R
CHETEK         CLOUDY    49  40  72 NW3       30.05S
LADYSMITH      CLOUDY    49  41  74 NW3       30.06R
EAU CLAIRE     CLOUDY    51  38  60 N6        30.04R
MENOMONIE      MOCLDY    49  39  68 CALM      30.05R
NEW RICHMOND   CLEAR     45  38  78 NE5       30.06R
OSCEOLA        CLEAR     47  39  76 N5        30.08R
$$

WIZ003>005-009-010-017-018-210200-
NORTH CENTRAL WISCONSIN

CITY           SKY/WX    TMP DP  RH WIND       PRES   REMARKS
MANITOWISH WTR DRIZZLE   43  42  97 N5        30.04R
ARBOR VITAE    DRIZZLE   44  42  93 NW7       30.03R
WOODRUFF       DRIZZLE   44  42  93 NW7       30.03R
RHINELANDER    CLOUDY    43  41  93 CALM      30.03S
EAGLE RIVER    DRIZZLE   42  41  96 N7        30.02R
LAND O LAKES   LGT RAIN  42  39  90 N7        30.04R
PHILLIPS       CLOUDY    46  40  79 N8        30.04R
TOMAHAWK       CLOUDY    45  40  83 CALM      30.04R
MEDFORD        CLOUDY    46  39  76 N3        30.03R
MERRILL        CLOUDY    47  40  78 N8        30.03R
$$

WIZ029-030-035-036-043>047-210200-
CENTRAL WISCONSIN

CITY           SKY/WX    TMP DP  RH WIND       PRES   REMARKS
WAUSAU         CLOUDY    47  40  76 CALM      30.02R
MOSINEE        CLOUDY    46  41  81 N7        30.04R
MARSHFIELD     CLOUDY    50  41  71 N3        30.03R
STEVENS POINT  CLOUDY    47  38  71 N7        30.03R
WAUPACA        CLOUDY    52  41  67 NW7       30.02R
WAUTOMA        CLOUDY    51  41  69 N7        30.02R
WISC RAPIDS    CLOUDY    51  40  65 N6        30.04R
CAMP DOUGLAS   MOCLDY    52  41  66 N6        30.03R
$$

WIZ011>013-019>022-031-037>040-048>050-210200-
NORTHEAST WISCONSIN

CITY           SKY/WX    TMP DP  RH WIND       PRES   REMARKS
ANTIGO         CLOUDY    44  40  87 N8        30.02S
SHAWANO        CLOUDY    50  41  70 N9        30.01R
OCONTO         CLOUDY    47  42  81 N7        30.00R
STURGEON BAY   CLOUDY    48  39  71 N14G20    29.99R
GREEN BAY      CLOUDY    48  44  86 N9        30.00R
MANITOWOC      MOCLDY    49  44  83 NW8       29.98R
APPLETON       CLOUDY    50  43  76 W12       30.00R VSB 1
CLINTONVILLE   CLOUDY    50  41  71 N6        30.01R
OSHKOSH        CLOUDY    51  44  77 NW7       30.00R
$$

WIZ032>034-041-042-053>061-210200-
SOUTHWEST WISCONSIN

CITY           SKY/WX    TMP DP  RH WIND       PRES   REMARKS
LA CROSSE      CLEAR     51  40  65 N3        30.03R
SPARTA         MOCLDY    50  38  62 N5        30.04R
VIROQUA        PTCLDY    48  39  71 CALM      30.02R
BOSCOBEL       CLEAR     53  41  63 E3        30.01R
PRAIRIE DU CHI CLEAR     53  41  64 NE6       30.01R
PLATTEVILLE    PTCLDY    49  41  73 NE7       30.01R
$$

WIZ056-057-062-063-064-067-068-210200-
SOUTH CENTRAL WISCONSIN

CITY           SKY/WX    TMP DP  RH WIND       PRES   REMARKS
REEDSBURG      CLOUDY    52  40  64 N6        30.02R
BARABOO/DELLS  CLOUDY    52  38  58 N3        30.02R
LONE ROCK      MOCLDY    57  39  51 NE8       30.01R
MINERAL POINT  CLEAR     52  37  58 NE5       30.00R
MADISON        CLOUDY    52  42  69 N3        30.01R
MIDDLETON      CLOUDY    54  40  59 N6        30.01R
WATERTOWN      CLOUDY    50  43  75 N5        30.00R
MONROE         PTCLDY    50  41  71 NE3       29.99R
JANESVILLE     MOCLDY    54  39  58 NE8       29.98R
$$

WIZ051-052-058>065-066-070>072-210200-
SOUTHEAST WISCONSIN

CITY           SKY/WX    TMP DP  RH WIND       PRES   REMARKS
MILWAUKEE      MOCLDY    53  42  66 NW8       29.98R
WAUKESHA       CLOUDY    48  41  76 NW12      30.00R
MILWAUKEE/TIMM CLOUDY    52  41  66 NW8       29.99R
RACINE         CLOUDY    52  42  69 NW5       30.00R
BURLINGTON     CLOUDY    50  40  68 N7        29.99R
KENOSHA        CLOUDY    52  42  69 NW7       29.98R
FOND DU LAC    CLOUDY    50  43  77 NW6       30.00R
SHEBOYGAN      CLOUDY    49  43  80 NW7       29.99R
WEST BEND      CLOUDY    50  41  71 NW5       29.99R
JUNEAU         CLOUDY    49  42  77 NW3       30.01R
$$

LSZ147-162-210200-
LAKE SUPERIOR

STATION/POSITION TIME  TEMP    WIND        PRES    WAVE
                       AIR SEA DIR/SP/G            HT/PER
                 (UTC) (F)     (DEG/KT/KT) (MB)    (FT/S)
W MID LAKE BUOY  0050   46 46   30/ 16/ 19 1018.6R   1/ 3
DEVILS ISLAND    0100   49      30/ 12/ 15 1019.1R
PORT WING        0000   50     360/  7/ 10 1018.3
SAXON HARBOR     0000   50      20/  7/ 12 1017.6R
$$

LMZ867-665-643>646-210200-
LAKE MICHIGAN

STATION/POSITION TIME  TEMP    WIND        PRES    WAVE
                       AIR SEA DIR/SP/G            HT/PER
                 (UTC) (F)     (DEG/KT/KT) (MB)    (FT/S)
CHAMBERS ISLAND  0000   49     340/ 16/ 18 1014.9R
N MID LAKE BUOY  0050   47 52  340/ 25/ 29 1013.8R   5/ 5
NORTHPORT PIER   0000   47     350/ 20/ 26 1014.6R
SISTER BAY       2328          350/ 18/ 23   N/A
KEWAUNEE LAKESHO 0000   50     320/  3/  7 1013.8R
SHEBOYGAN LAKESH 0100   50 51  320/  9/ 11 1015.7R
PORT WASHINGTON  0000   53     330/  3/  9 1015.6R
ATWATER BUOY     0100   53     340/ 10/ 14 1016.3R
MILWAUKEE LAKESH 0000   54     310/  6/  9   N/A
S MID LAKE BUOY  0050   51 55  360/ 17/ 21 1014.8R   4/ 5
KENOSHA   LAKESH 0100   53     320/  7/ 10 1015.2R
$$

TC  - TEMPERATURE IN CELSIUS
VSB - VISIBILITY IN STATUTE MILES
WCI - WIND CHILL INDEX
HX  - HEAT INDEX



USA.gov is the U.S. government's official web portal to all federal, state and local government web resources and services.